Time,TemperatureF,DewpointF,PressureIn,WindDirection,WindDirectionDegrees,WindSpeedMPH,WindSpeedGustMPH,Humidity,HourlyPrecipIn,Conditions,Clouds,dailyrainin,SolarRadiationWatts/m^2,SoftwareType,DateUTC
2013-07-23 00:04:00,66.1,63.4,30.02,North,360,2.0,7.0,91,0.00,CLR,CLR,0.00,0.0,WeatherDisplay:10.37,2013-07-23 04:04:00,
2013-07-23 00:09:00,66.0,63.6,30.02,North,360,3.0,12.0,92,0.00,CLR,CLR,0.00,0.0,WeatherDisplay:10.37,2013-07-23 04:09:00,
2013-07-23 00:18:00,65.7,63.3,30.02,North,360,3.0,15.0,92,0.00,CLR,CLR,0.00,0.0,WeatherDisplay:10.37,2013-07-23 04:18:00,
2013-07-23 00:23:00,65.7,63.3,30.02,North,360,5.0,10.0,92,0.00,CLR,CLR,0.00,0.0,WeatherDisplay:10.37,2013-07-23 04:23:00,
2013-07-23 00:29:00,65.7,63.3,30.01,North,360,2.0,10.0,92,0.00,CLR,CLR,0.00,0.0,WeatherDisplay:10.37,2013-07-23 04:29:00,
2013-07-23 00:39:00,65.6,63.2,30.02,North,360,7.0,10.0,92,0.00,CLR,CLR,0.00,0.0,WeatherDisplay:10.37,2013-07-23 04:39:00,
2013-07-23 00:44:00,65.6,63.2,30.01,North,360,3.0,12.0,92,0.00,CLR,CLR,0.00,0.0,WeatherDisplay:10.37,2013-07-23 04:44:00,
2013-07-23 00:54:00,65.7,63.3,30.01,North,360,8.0,13.0,92,0.00,CLR,CLR,0.00,0.0,WeatherDisplay:10.37,2013-07-23 04:54:00,
2013-07-23 00:59:00,65.9,63.2,30.01,North,360,2.0,12.0,91,0.00,CLR,CLR,0.00,0.0,WeatherDisplay:10.37,2013-07-23 04:59:00,
2013-07-23 01:04:00,66.1,63.1,30.00,North,360,7.0,12.0,90,0.00,CLR,CLR,0.00,0.0,WeatherDisplay:10.37,2013-07-23 05:04:00,
2013-07-23 01:14:00,66.2,63.2,30.00,North,360,3.0,7.0,90,0.00,CLR,CLR,0.00,0.0,WeatherDisplay:10.37,2013-07-23 05:14:00,
2013-07-23 01:19:00,66.2,63.2,30.00,North,360,5.0,9.0,90,0.00,CLR,CLR,0.00,0.0,WeatherDisplay:10.37,2013-07-23 05:19:00,
2013-07-23 01:29:00,66.6,62.9,30.00,North,360,1.0,12.0,88,0.00,CLR,CLR,0.00,0.0,WeatherDisplay:10.37,2013-07-23 05:29:00,
2013-07-23 01:34:00,66.6,62.9,30.00,North,360,1.0,6.0,88,0.00,CLR,CLR,0.00,0.0,WeatherDisplay:10.37,2013-07-23 05:34:00,
2013-07-23 01:44:00,66.6,62.6,29.99,North,360,1.0,10.0,87,0.00,CLR,CLR,0.00,0.0,WeatherDisplay:10.37,2013-07-23 05:44:00,
2013-07-23 01:49:00,66.6,63.0,30.00,North,360,3.0,9.0,88,0.00,CLR,CLR,0.00,0.0,WeatherDisplay:10.37,2013-07-23 05:49:00,
2013-07-23 01:58:00,66.6,62.6,30.00,North,360,2.0,6.0,87,0.00,CLR,CLR,0.00,0.0,WeatherDisplay:10.37,2013-07-23 05:58:00,
2013-07-23 02:04:00,66.6,62.6,30.00,North,360,0.0,5.0,87,0.01,RA,RA,0.01,0.0,WeatherDisplay:10.37,2013-07-23 06:04:00,
2013-07-23 02:09:00,66.7,62.3,29.99,North,360,5.0,7.0,86,0.00,RA,RA,0.01,0.0,WeatherDisplay:10.37,2013-07-23 06:09:00,
2013-07-23 02:19:00,66.2,62.6,29.99,North,360,5.0,12.0,88,0.00,RA,RA,0.01,0.0,WeatherDisplay:10.37,2013-07-23 06:19:00,
2013-07-23 02:24:00,66.2,61.9,29.98,North,360,7.0,13.0,86,0.00,RA,RA,0.01,0.0,WeatherDisplay:10.37,2013-07-23 06:24:00,
2013-07-23 02:34:00,66.0,61.7,29.98,North,360,9.0,17.0,86,0.00,RA,RA,0.01,0.0,WeatherDisplay:10.37,2013-07-23 06:34:00,
2013-07-23 02:39:00,66.2,62.2,29.98,North,360,7.0,15.0,87,0.00,RA,RA,0.01,0.0,WeatherDisplay:10.37,2013-07-23 06:39:00,
2013-07-23 02:48:00,66.5,61.8,29.98,North,360,5.0,16.0,85,0.00,RA,RA,0.01,0.0,WeatherDisplay:10.37,2013-07-23 06:48:00,
2013-07-23 02:54:00,66.5,62.2,29.98,North,360,7.0,12.0,86,0.00,RA,RA,0.01,0.0,WeatherDisplay:10.37,2013-07-23 06:54:00,
2013-07-23 03:04:00,66.2,61.9,29.98,North,360,10.0,17.0,86,0.00,RA,RA,0.01,0.0,WeatherDisplay:10.37,2013-07-23 07:04:00,
2013-07-23 03:09:00,66.2,62.2,29.97,North,360,7.0,15.0,87,0.00,RA,RA,0.01,0.0,WeatherDisplay:10.37,2013-07-23 07:09:00,
2013-07-23 03:14:00,65.8,61.8,29.97,North,360,10.0,20.0,87,0.00,RA,RA,0.01,0.0,WeatherDisplay:10.37,2013-07-23 07:14:00,
2013-07-23 03:19:00,66.1,61.8,29.97,North,360,10.0,23.0,86,0.00,RA,RA,0.01,0.0,WeatherDisplay:10.37,2013-07-23 07:19:00,
2013-07-23 03:29:00,66.2,61.9,29.97,North,360,9.0,15.0,86,0.00,RA,RA,0.01,0.0,WeatherDisplay:10.37,2013-07-23 07:29:00,
2013-07-23 03:39:00,66.2,61.9,29.99,North,360,7.0,14.0,86,0.00,RA,RA,0.01,0.0,WeatherDisplay:10.37,2013-07-23 07:39:00,
2013-07-23 03:49:00,66.3,62.0,29.99,North,360,7.0,12.0,86,0.00,RA,RA,0.01,0.0,WeatherDisplay:10.37,2013-07-23 07:49:00,
2013-07-23 03:54:00,66.2,61.9,29.98,North,360,5.0,12.0,86,0.00,RA,RA,0.01,0.0,WeatherDisplay:10.37,2013-07-23 07:54:00,
2013-07-23 03:59:00,66.1,61.8,29.98,North,360,6.0,14.0,86,0.00,RA,RA,0.01,0.0,WeatherDisplay:10.37,2013-07-23 07:59:00,
2013-07-23 04:04:00,66.2,61.9,29.98,North,360,5.0,10.0,86,0.00,RA,RA,0.01,0.0,WeatherDisplay:10.37,2013-07-23 08:04:00,
2013-07-23 04:14:00,66.1,61.8,29.98,North,360,7.0,13.0,86,0.00,RA,RA,0.01,0.0,WeatherDisplay:10.37,2013-07-23 08:14:00,
2013-07-23 04:19:00,66.0,62.0,29.98,North,360,6.0,12.0,87,0.00,RA,RA,0.01,0.0,WeatherDisplay:10.37,2013-07-23 08:19:00,
2013-07-23 04:24:00,66.0,62.0,29.98,North,360,5.0,12.0,87,0.00,RA,RA,0.01,0.0,WeatherDisplay:10.37,2013-07-23 08:24:00,
2013-07-23 04:29:00,66.0,62.0,29.98,North,360,5.0,12.0,87,0.00,RA,RA,0.01,0.0,WeatherDisplay:10.37,2013-07-23 08:29:00,
2013-07-23 04:38:00,65.8,61.8,29.99,North,360,5.0,12.0,87,0.00,RA,RA,0.01,0.0,WeatherDisplay:10.37,2013-07-23 08:38:00,
2013-07-23 04:43:00,65.8,61.8,29.99,North,360,5.0,9.0,87,0.00,RA,RA,0.01,0.0,WeatherDisplay:10.37,2013-07-23 08:43:00,
2013-07-23 04:49:00,65.9,61.6,29.99,North,360,5.0,14.0,86,0.00,RA,RA,0.01,0.0,WeatherDisplay:10.37,2013-07-23 08:49:00,
2013-07-23 04:59:00,66.0,61.4,29.98,North,360,7.0,13.0,85,0.00,RA,RA,0.01,0.0,WeatherDisplay:10.37,2013-07-23 08:59:00,
2013-07-23 05:03:00,66.1,61.5,29.99,North,360,6.0,14.0,85,0.00,RA,RA,0.01,0.0,WeatherDisplay:10.37,2013-07-23 09:03:00,
2013-07-23 05:09:00,66.1,61.8,29.99,North,360,6.0,12.0,86,0.00,RA,RA,0.01,0.0,WeatherDisplay:10.37,2013-07-23 09:09:00,
2013-07-23 05:19:00,66.1,61.5,29.99,North,360,7.0,13.0,85,0.00,RA,RA,0.01,0.0,WeatherDisplay:10.37,2013-07-23 09:19:00,
2013-07-23 05:29:00,66.3,61.7,29.99,North,360,7.0,12.0,85,0.00,RA,RA,0.01,0.0,WeatherDisplay:10.37,2013-07-23 09:29:00,
2013-07-23 05:34:00,66.1,61.5,29.98,North,360,6.0,10.0,85,0.00,RA,RA,0.01,0.0,WeatherDisplay:10.37,2013-07-23 09:34:00,
2013-07-23 05:39:00,65.9,61.6,29.98,North,360,8.0,12.0,86,0.00,RA,RA,0.01,0.0,WeatherDisplay:10.37,2013-07-23 09:39:00,
2013-07-23 05:49:00,65.8,61.5,29.98,North,360,8.0,17.0,86,0.00,RA,RA,0.01,0.0,WeatherDisplay:10.37,2013-07-23 09:49:00,
2013-07-23 05:54:00,66.1,61.5,29.98,North,360,12.0,16.0,85,0.00,RA,RA,0.01,0.0,WeatherDisplay:10.37,2013-07-23 09:54:00,
2013-07-23 05:59:00,66.3,61.3,29.98,North,360,3.0,13.0,84,0.00,RA,RA,0.01,0.0,WeatherDisplay:10.37,2013-07-23 09:59:00,
2013-07-23 06:09:00,66.7,61.7,29.98,North,360,9.0,14.0,84,0.00,RA,RA,0.01,0.0,WeatherDisplay:10.37,2013-07-23 10:09:00,
2013-07-23 06:19:00,66.3,61.7,29.99,North,360,7.0,13.0,85,0.00,RA,RA,0.01,0.0,WeatherDisplay:10.37,2013-07-23 10:19:00,
2013-07-23 06:29:00,66.4,61.4,29.99,North,360,12.0,16.0,84,0.00,RA,RA,0.01,0.0,WeatherDisplay:10.37,2013-07-23 10:29:00,
2013-07-23 06:34:00,66.6,61.3,29.99,North,360,9.0,13.0,83,0.00,RA,RA,0.01,0.0,WeatherDisplay:10.37,2013-07-23 10:34:00,
2013-07-23 06:39:00,66.7,61.4,29.99,North,360,6.0,12.0,83,0.00,RA,RA,0.01,0.0,WeatherDisplay:10.37,2013-07-23 10:39:00,
2013-07-23 06:49:00,66.6,61.3,29.99,North,360,7.0,12.0,83,0.00,RA,RA,0.01,16.0,WeatherDisplay:10.37,2013-07-23 10:49:00,
2013-07-23 06:59:00,67.2,61.5,30.00,North,360,5.0,12.0,82,0.00,RA,RA,0.01,39.0,WeatherDisplay:10.37,2013-07-23 10:59:00,
2013-07-23 07:04:00,67.2,61.5,30.00,North,360,7.0,12.0,82,0.00,RA,RA,0.01,51.0,WeatherDisplay:10.37,2013-07-23 11:04:00,
2013-07-23 07:09:00,67.2,61.5,30.00,North,360,7.0,14.0,82,0.00,RA,RA,0.01,65.0,WeatherDisplay:10.37,2013-07-23 11:09:00,
2013-07-23 07:18:00,67.2,61.8,30.00,North,360,5.0,12.0,83,0.00,RA,RA,0.02,93.0,WeatherDisplay:10.37,2013-07-23 11:18:00,
2013-07-23 07:23:00,67.1,61.4,30.00,North,360,8.0,13.0,82,0.00,RA,RA,0.02,100.0,WeatherDisplay:10.37,2013-07-23 11:23:00,
2013-07-23 07:29:00,67.3,62.0,30.00,North,360,3.0,12.0,83,0.00,RA,RA,0.02,114.0,WeatherDisplay:10.37,2013-07-23 11:29:00,
2013-07-23 07:39:00,67.2,61.9,30.00,North,360,1.0,4.0,83,0.00,RA,RA,0.02,105.0,WeatherDisplay:10.37,2013-07-23 11:39:00,
2013-07-23 07:44:00,67.1,61.8,30.00,North,360,2.0,13.0,83,0.00,RA,RA,0.02,127.0,WeatherDisplay:10.37,2013-07-23 11:44:00,
2013-07-23 07:49:00,67.2,62.2,30.00,North,360,0.0,12.0,84,0.00,RA,RA,0.02,207.0,WeatherDisplay:10.37,2013-07-23 11:49:00,
2013-07-23 07:59:00,67.3,62.0,30.00,North,360,1.0,7.0,83,0.00,RA,RA,0.02,248.0,WeatherDisplay:10.37,2013-07-23 11:59:00,
2013-07-23 08:04:00,67.4,62.1,30.00,North,360,6.0,12.0,83,0.00,RA,RA,0.02,260.0,WeatherDisplay:10.37,2013-07-23 12:04:00,
2013-07-23 08:13:00,67.7,62.3,30.00,North,360,6.0,9.0,83,0.00,RA,RA,0.02,292.0,WeatherDisplay:10.37,2013-07-23 12:13:00,
2013-07-23 08:19:00,67.8,62.1,29.99,North,360,7.0,12.0,82,0.00,RA,RA,0.02,308.0,WeatherDisplay:10.37,2013-07-23 12:19:00,
2013-07-23 08:24:00,68.0,62.3,29.99,North,360,5.0,10.0,82,0.00,RA,RA,0.02,318.0,WeatherDisplay:10.37,2013-07-23 12:24:00,
2013-07-23 08:29:00,68.2,62.8,29.99,North,360,6.0,12.0,83,0.00,RA,RA,0.02,343.0,WeatherDisplay:10.37,2013-07-23 12:29:00,
2013-07-23 08:39:00,69.0,61.9,29.99,North,360,9.0,20.0,78,0.00,RA,RA,0.02,380.0,WeatherDisplay:10.37,2013-07-23 12:39:00,
2013-07-23 08:44:00,69.4,61.5,29.99,North,360,9.0,15.0,76,0.00,RA,RA,0.02,394.0,WeatherDisplay:10.37,2013-07-23 12:44:00,
2013-07-23 08:54:00,69.9,60.8,29.99,North,360,10.0,15.0,73,0.00,RA,RA,0.02,427.0,WeatherDisplay:10.37,2013-07-23 12:54:00,
2013-07-23 08:59:00,70.1,61.0,29.99,North,360,13.0,18.0,73,0.00,RA,RA,0.02,446.0,WeatherDisplay:10.37,2013-07-23 12:59:00,
2013-07-23 09:03:00,70.3,60.4,29.99,North,360,12.0,16.0,71,0.00,RA,RA,0.02,461.0,WeatherDisplay:10.37,2013-07-23 13:03:00,
2013-07-23 09:09:00,70.5,61.0,30.00,North,360,9.0,15.0,72,0.00,RA,RA,0.02,478.0,WeatherDisplay:10.37,2013-07-23 13:09:00,
2013-07-23 09:19:00,71.0,61.5,30.00,North,360,5.0,9.0,72,0.00,RA,RA,0.02,506.0,WeatherDisplay:10.37,2013-07-23 13:19:00,
2013-07-23 09:24:00,71.3,62.2,30.00,North,360,2.0,9.0,73,0.00,RA,RA,0.02,529.0,WeatherDisplay:10.37,2013-07-23 13:24:00,
2013-07-23 09:34:00,71.4,63.5,30.00,North,360,3.0,10.0,76,0.00,RA,RA,0.02,555.0,WeatherDisplay:10.37,2013-07-23 13:34:00,
2013-07-23 09:38:00,71.4,63.8,30.01,North,360,5.0,12.0,77,0.00,RA,RA,0.02,573.0,WeatherDisplay:10.37,2013-07-23 13:38:00,
2013-07-23 09:44:00,71.6,64.3,30.00,North,360,1.0,7.0,78,0.00,RA,RA,0.02,589.0,WeatherDisplay:10.37,2013-07-23 13:44:00,
2013-07-23 09:49:00,71.7,63.4,30.00,North,360,5.0,12.0,75,0.00,RA,RA,0.02,606.0,WeatherDisplay:10.37,2013-07-23 13:49:00,
2013-07-23 09:59:00,72.0,65.1,30.00,North,360,2.0,12.0,79,0.00,RA,RA,0.02,640.0,WeatherDisplay:10.37,2013-07-23 13:59:00,
2013-07-23 10:04:00,72.1,65.2,30.01,North,360,1.0,7.0,79,0.00,RA,RA,0.02,654.0,WeatherDisplay:10.37,2013-07-23 14:04:00,
2013-07-23 10:09:00,72.3,63.9,30.01,North,360,7.0,12.0,75,0.00,RA,RA,0.02,673.0,WeatherDisplay:10.37,2013-07-23 14:09:00,
2013-07-23 10:19:00,72.6,63.4,30.00,North,360,3.0,10.0,73,0.00,RA,RA,0.02,708.0,WeatherDisplay:10.37,2013-07-23 14:19:00,
2013-07-23 10:24:00,72.8,64.4,30.00,North,360,1.0,12.0,75,0.00,RA,RA,0.02,722.0,WeatherDisplay:10.37,2013-07-23 14:24:00,
2013-07-23 10:29:00,73.0,64.6,30.01,North,360,6.0,14.0,75,0.00,RA,RA,0.02,733.0,WeatherDisplay:10.37,2013-07-23 14:29:00,
2013-07-23 10:34:00,72.9,65.3,30.01,North,360,7.0,15.0,77,0.00,RA,RA,0.02,754.0,WeatherDisplay:10.37,2013-07-23 14:34:00,
2013-07-23 10:39:00,72.8,64.8,30.01,North,360,2.0,15.0,76,0.00,RA,RA,0.02,775.0,WeatherDisplay:10.37,2013-07-23 14:39:00,
2013-07-23 10:44:00,72.9,64.5,30.01,North,360,6.0,16.0,75,0.01,RA,RA,0.03,740.0,WeatherDisplay:10.37,2013-07-23 14:44:00,
2013-07-23 10:49:00,73.0,64.2,30.01,North,360,7.0,12.0,74,0.00,RA,RA,0.03,786.0,WeatherDisplay:10.37,2013-07-23 14:49:00,
2013-07-23 10:54:00,73.3,64.5,30.02,North,360,5.0,12.0,74,0.00,RA,RA,0.03,796.0,WeatherDisplay:10.37,2013-07-23 14:54:00,
2013-07-23 10:59:00,73.5,64.7,30.02,North,360,6.0,12.0,74,0.00,RA,RA,0.03,802.0,WeatherDisplay:10.37,2013-07-23 14:59:00,
2013-07-23 11:09:00,73.6,64.4,30.03,North,360,6.0,15.0,73,0.00,RA,RA,0.03,823.0,WeatherDisplay:10.37,2013-07-23 15:09:00,
2013-07-23 11:19:00,73.5,63.9,30.02,North,360,6.0,13.0,72,0.00,RA,RA,0.03,837.0,WeatherDisplay:10.37,2013-07-23 15:19:00,
2013-07-23 11:24:00,73.7,64.5,30.03,North,360,3.0,13.0,73,0.00,RA,RA,0.03,856.0,WeatherDisplay:10.37,2013-07-23 15:24:00,
2013-07-23 11:29:00,73.9,64.3,30.03,North,360,5.0,14.0,72,0.00,RA,RA,0.03,863.0,WeatherDisplay:10.37,2013-07-23 15:29:00,
2013-07-23 11:39:00,74.3,63.5,30.03,North,360,9.0,20.0,69,0.00,RA,RA,0.03,896.0,WeatherDisplay:10.37,2013-07-23 15:39:00,
2013-07-23 11:44:00,74.5,64.0,30.03,North,360,7.0,14.0,70,0.00,RA,RA,0.03,891.0,WeatherDisplay:10.37,2013-07-23 15:44:00,
2013-07-23 11:54:00,74.7,63.8,30.03,North,360,8.0,20.0,69,0.00,RA,RA,0.03,893.0,WeatherDisplay:10.37,2013-07-23 15:54:00,
2013-07-23 12:04:00,74.6,64.2,30.03,North,360,5.0,18.0,70,0.00,RA,RA,0.03,914.0,WeatherDisplay:10.37,2013-07-23 16:04:00,
2013-07-23 12:09:00,74.7,63.5,30.03,North,360,10.0,17.0,68,0.00,RA,RA,0.03,919.0,WeatherDisplay:10.37,2013-07-23 16:09:00,
2013-07-23 12:14:00,74.8,63.1,30.03,North,360,9.0,14.0,67,0.00,RA,RA,0.03,923.0,WeatherDisplay:10.37,2013-07-23 16:14:00,
2013-07-23 12:24:00,74.9,63.6,30.02,North,360,6.0,16.0,68,0.00,RA,RA,0.03,921.0,WeatherDisplay:10.37,2013-07-23 16:24:00,
2013-07-23 12:29:00,75.2,63.5,30.02,North,360,9.0,17.0,67,0.00,RA,RA,0.03,923.0,WeatherDisplay:10.37,2013-07-23 16:29:00,
2013-07-23 12:39:00,75.8,63.2,30.03,North,360,10.0,14.0,65,0.00,RA,RA,0.03,933.0,WeatherDisplay:10.37,2013-07-23 16:39:00,
2013-07-23 12:44:00,75.9,63.3,30.03,North,360,12.0,22.0,65,0.00,RA,RA,0.03,939.0,WeatherDisplay:10.37,2013-07-23 16:44:00,
2013-07-23 12:49:00,75.9,62.8,30.02,North,360,10.0,20.0,64,0.00,RA,RA,0.03,946.0,WeatherDisplay:10.37,2013-07-23 16:49:00,
2013-07-23 12:58:00,76.2,64.4,30.02,North,360,12.0,20.0,67,0.00,RA,RA,0.03,970.0,WeatherDisplay:10.37,2013-07-23 16:58:00,
2013-07-23 13:04:00,76.4,65.1,30.02,North,360,10.0,20.0,68,0.00,RA,RA,0.03,962.0,WeatherDisplay:10.37,2013-07-23 17:04:00,
2013-07-23 13:09:00,76.5,64.7,30.02,North,360,5.0,17.0,67,0.00,RA,RA,0.03,962.0,WeatherDisplay:10.37,2013-07-23 17:09:00,
2013-07-23 13:14:00,76.5,63.4,30.02,North,360,10.0,18.0,64,0.00,RA,RA,0.03,954.0,WeatherDisplay:10.37,2013-07-23 17:14:00,
2013-07-23 13:19:00,76.6,64.0,30.02,North,360,13.0,21.0,65,0.00,RA,RA,0.03,954.0,WeatherDisplay:10.37,2013-07-23 17:19:00,
2013-07-23 13:24:00,76.4,63.3,30.02,North,360,9.0,17.0,64,0.00,RA,RA,0.03,962.0,WeatherDisplay:10.37,2013-07-23 17:24:00,
2013-07-23 13:29:00,76.5,64.7,30.01,North,360,1.0,16.0,67,0.00,RA,RA,0.03,953.0,WeatherDisplay:10.37,2013-07-23 17:29:00,
2013-07-23 13:34:00,76.9,63.8,30.01,North,360,5.0,14.0,64,0.00,RA,RA,0.03,951.0,WeatherDisplay:10.37,2013-07-23 17:34:00,
2013-07-23 13:43:00,77.4,62.9,30.00,North,360,7.0,13.0,61,0.00,RA,RA,0.03,1021.0,WeatherDisplay:10.37,2013-07-23 17:43:00,
2013-07-23 13:49:00,77.9,64.2,30.00,North,360,3.0,10.0,63,0.00,RA,RA,0.03,1143.0,WeatherDisplay:10.37,2013-07-23 17:49:00,
2013-07-23 13:59:00,77.7,64.5,30.00,North,360,5.0,12.0,64,0.00,RA,RA,0.03,244.0,WeatherDisplay:10.37,2013-07-23 17:59:00,
2013-07-23 14:04:00,77.8,64.6,30.00,North,360,1.0,12.0,64,0.00,RA,RA,0.03,976.0,WeatherDisplay:10.37,2013-07-23 18:04:00,
2013-07-23 14:14:00,78.4,64.3,29.99,North,360,8.0,14.0,62,0.00,RA,RA,0.03,947.0,WeatherDisplay:10.37,2013-07-23 18:14:00,
2013-07-23 14:19:00,78.6,66.3,29.99,North,360,5.0,15.0,66,0.00,RA,RA,0.03,932.0,WeatherDisplay:10.37,2013-07-23 18:19:00,
2013-07-23 14:29:00,78.7,64.1,29.99,North,360,7.0,14.0,61,0.00,RA,RA,0.03,977.0,WeatherDisplay:10.37,2013-07-23 18:29:00,
2013-07-23 14:34:00,78.8,64.6,29.99,North,360,5.0,13.0,62,0.00,RA,RA,0.03,991.0,WeatherDisplay:10.37,2013-07-23 18:34:00,
2013-07-23 14:39:00,78.9,64.8,29.99,North,360,3.0,13.0,62,0.00,RA,RA,0.03,925.0,WeatherDisplay:10.37,2013-07-23 18:39:00,
2013-07-23 14:54:00,78.7,64.1,29.99,North,360,9.0,17.0,61,0.00,RA,RA,0.04,923.0,WeatherDisplay:10.37,2013-07-23 18:54:00,
2013-07-23 15:09:00,79.2,67.3,29.99,North,360,3.0,16.0,67,0.00,RA,RA,0.04,995.0,WeatherDisplay:10.37,2013-07-23 19:09:00,
2013-07-23 15:13:00,79.2,67.3,29.98,North,360,3.0,16.0,67,0.00,RA,RA,0.04,979.0,WeatherDisplay:10.37,2013-07-23 19:13:00,
2013-07-23 15:19:00,79.2,65.5,29.98,North,360,5.0,14.0,63,0.00,RA,RA,0.04,865.0,WeatherDisplay:10.37,2013-07-23 19:19:00,
2013-07-23 15:24:00,79.2,66.4,29.98,North,360,0.0,12.0,65,0.00,RA,RA,0.04,800.0,WeatherDisplay:10.37,2013-07-23 19:24:00,
2013-07-23 15:29:00,79.3,64.7,29.98,North,360,5.0,16.0,61,0.00,RA,RA,0.04,758.0,WeatherDisplay:10.37,2013-07-23 19:29:00,
2013-07-23 15:39:00,79.1,65.9,29.98,North,360,2.0,6.0,64,0.00,RA,RA,0.04,547.0,WeatherDisplay:10.37,2013-07-23 19:39:00,
2013-07-23 15:49:00,79.0,66.7,29.97,North,360,3.0,13.0,66,0.00,RA,RA,0.04,677.0,WeatherDisplay:10.37,2013-07-23 19:49:00,
2013-07-23 15:54:00,78.9,65.7,29.97,North,360,3.0,12.0,64,0.00,RA,RA,0.04,487.0,WeatherDisplay:10.37,2013-07-23 19:54:00,
2013-07-23 16:04:00,78.2,65.5,29.97,North,360,3.0,10.0,65,0.00,RA,RA,0.04,429.0,WeatherDisplay:10.37,2013-07-23 20:04:00,
2013-07-23 16:09:00,78.0,65.7,29.97,North,360,6.0,13.0,66,0.00,RA,RA,0.04,383.0,WeatherDisplay:10.37,2013-07-23 20:09:00,
2013-07-23 16:24:00,77.8,65.5,29.96,North,360,6.0,15.0,66,0.00,RA,RA,0.04,378.0,WeatherDisplay:10.37,2013-07-23 20:24:00,
2013-07-23 16:29:00,77.6,66.7,29.96,North,360,2.0,14.0,69,0.00,RA,RA,0.04,357.0,WeatherDisplay:10.37,2013-07-23 20:29:00,
2013-07-23 16:43:00,77.2,66.7,29.95,North,360,5.0,12.0,70,0.00,RA,RA,0.04,376.0,WeatherDisplay:10.37,2013-07-23 20:43:00,
2013-07-23 16:49:00,77.1,65.7,29.96,North,360,8.0,12.0,68,0.00,RA,RA,0.04,369.0,WeatherDisplay:10.37,2013-07-23 20:49:00,
2013-07-23 16:54:00,77.2,67.0,29.95,North,360,2.0,14.0,71,0.00,RA,RA,0.04,341.0,WeatherDisplay:10.37,2013-07-23 20:54:00,
2013-07-23 16:59:00,77.2,68.6,29.95,North,360,0.0,12.0,75,0.00,RA,RA,0.04,334.0,WeatherDisplay:10.37,2013-07-23 20:59:00,
2013-07-23 17:04:00,77.3,69.5,29.95,North,360,0.0,2.0,77,0.00,RA,RA,0.04,285.0,WeatherDisplay:10.37,2013-07-23 21:04:00,
2013-07-23 17:09:00,77.1,66.6,29.95,North,360,1.0,15.0,70,0.00,RA,RA,0.04,274.0,WeatherDisplay:10.37,2013-07-23 21:09:00,
2013-07-23 17:14:00,76.9,66.7,29.95,North,360,5.0,12.0,71,0.00,RA,RA,0.04,288.0,WeatherDisplay:10.37,2013-07-23 21:14:00,
2013-07-23 17:24:00,76.6,67.3,29.95,North,360,0.0,12.0,73,0.00,RA,RA,0.04,295.0,WeatherDisplay:10.37,2013-07-23 21:24:00,
2013-07-23 17:39:00,77.3,70.3,29.95,North,360,0.0,0.0,79,0.00,RA,RA,0.05,297.0,WeatherDisplay:10.37,2013-07-23 21:39:00,
2013-07-23 17:48:00,78.2,69.6,29.95,North,360,1.0,5.0,75,0.00,RA,RA,0.05,207.0,WeatherDisplay:10.37,2013-07-23 21:48:00,
2013-07-23 17:54:00,78.1,67.5,29.95,North,360,1.0,9.0,70,0.00,RA,RA,0.05,211.0,WeatherDisplay:10.37,2013-07-23 21:54:00,
2013-07-23 18:09:00,77.6,67.0,29.94,North,360,3.0,10.0,70,0.00,RA,RA,0.05,142.0,WeatherDisplay:10.37,2013-07-23 22:09:00,
2013-07-23 18:14:00,77.8,67.6,29.94,North,360,3.0,12.0,71,0.00,RA,RA,0.05,104.0,WeatherDisplay:10.37,2013-07-23 22:14:00,
2013-07-23 18:18:00,77.5,66.5,29.94,North,360,6.0,12.0,69,0.00,RA,RA,0.05,100.0,WeatherDisplay:10.37,2013-07-23 22:18:00,
2013-07-23 18:24:00,77.0,67.2,29.94,North,360,3.0,10.0,72,0.00,RA,RA,0.05,104.0,WeatherDisplay:10.37,2013-07-23 22:24:00,
2013-07-23 18:29:00,76.5,66.4,29.94,North,360,3.0,9.0,71,0.00,RA,RA,0.05,116.0,WeatherDisplay:10.37,2013-07-23 22:29:00,
2013-07-23 18:38:00,75.8,67.7,29.94,North,360,2.0,6.0,76,0.00,RA,RA,0.05,130.0,WeatherDisplay:10.37,2013-07-23 22:38:00,
2013-07-23 18:44:00,75.5,68.6,29.94,North,360,1.0,9.0,79,0.00,RA,RA,0.05,139.0,WeatherDisplay:10.37,2013-07-23 22:44:00,
2013-07-23 18:49:00,75.3,67.9,29.94,North,360,5.0,12.0,78,0.00,RA,RA,0.05,146.0,WeatherDisplay:10.37,2013-07-23 22:49:00,
2013-07-23 19:04:00,74.7,67.0,29.94,North,360,2.0,10.0,77,0.00,RA,RA,0.05,232.0,WeatherDisplay:10.37,2013-07-23 23:04:00,
2013-07-23 19:09:00,74.9,67.6,29.94,North,360,1.0,12.0,78,0.00,RA,RA,0.05,299.0,WeatherDisplay:10.37,2013-07-23 23:09:00,
2013-07-23 19:14:00,75.3,67.6,29.94,North,360,3.0,13.0,77,0.00,RA,RA,0.05,223.0,WeatherDisplay:10.37,2013-07-23 23:14:00,
2013-07-23 19:24:00,75.6,67.5,29.94,North,360,1.0,8.0,76,0.00,RA,RA,0.05,163.0,WeatherDisplay:10.37,2013-07-23 23:24:00,
2013-07-23 19:29:00,75.7,67.2,29.94,North,360,0.0,5.0,75,0.00,RA,RA,0.05,141.0,WeatherDisplay:10.37,2013-07-23 23:29:00,
2013-07-23 19:39:00,74.8,66.7,29.94,North,360,6.0,12.0,76,0.00,RA,RA,0.05,49.0,WeatherDisplay:10.37,2013-07-23 23:39:00,
2013-07-23 19:49:00,74.1,66.8,29.94,North,360,6.0,9.0,78,0.00,RA,RA,0.05,37.0,WeatherDisplay:10.37,2013-07-23 23:49:00,
2013-07-23 19:54:00,73.8,66.5,29.95,North,360,5.0,9.0,78,0.00,RA,RA,0.05,40.0,WeatherDisplay:10.37,2013-07-23 23:54:00,
2013-07-23 19:59:00,73.6,66.7,29.95,North,360,1.0,6.0,79,0.00,RA,RA,0.05,33.0,WeatherDisplay:10.37,2013-07-23 23:59:00,
2013-07-23 20:09:00,73.3,66.4,29.95,North,360,2.0,6.0,79,0.00,RA,RA,0.05,26.0,WeatherDisplay:10.37,2013-07-24 00:09:00,
2013-07-23 20:19:00,73.0,66.5,29.95,North,360,0.0,3.0,80,0.00,RA,RA,0.05,16.0,WeatherDisplay:10.37,2013-07-24 00:19:00,
2013-07-23 20:29:00,72.9,66.4,29.95,North,360,1.0,6.0,80,0.00,RA,RA,0.05,11.0,WeatherDisplay:10.37,2013-07-24 00:29:00,
2013-07-23 20:38:00,73.0,66.5,29.95,North,360,0.0,4.0,80,0.00,RA,RA,0.05,0.0,WeatherDisplay:10.37,2013-07-24 00:38:00,
2013-07-23 20:44:00,72.9,66.4,29.96,North,360,0.0,4.0,80,0.00,RA,RA,0.05,0.0,WeatherDisplay:10.37,2013-07-24 00:44:00,
2013-07-23 20:49:00,72.8,66.3,29.96,North,360,0.0,3.0,80,0.00,RA,RA,0.05,0.0,WeatherDisplay:10.37,2013-07-24 00:49:00,
2013-07-23 20:54:00,72.6,66.1,29.96,North,360,0.0,2.0,80,0.00,RA,RA,0.05,0.0,WeatherDisplay:10.37,2013-07-24 00:54:00,
2013-07-23 20:59:00,72.5,66.0,29.96,North,360,0.0,2.0,80,0.00,RA,RA,0.05,0.0,WeatherDisplay:10.37,2013-07-24 00:59:00,
2013-07-23 21:08:00,72.4,66.2,29.96,North,360,2.0,4.0,81,0.00,RA,RA,0.05,0.0,WeatherDisplay:10.37,2013-07-24 01:08:00,
2013-07-23 21:13:00,72.1,66.3,29.96,North,360,0.0,4.0,82,0.00,RA,RA,0.05,0.0,WeatherDisplay:10.37,2013-07-24 01:13:00,
2013-07-23 21:19:00,71.9,66.1,29.96,North,360,0.0,0.0,82,0.00,RA,RA,0.05,0.0,WeatherDisplay:10.37,2013-07-24 01:19:00,
2013-07-23 21:29:00,71.7,66.3,29.96,North,360,0.0,0.0,83,0.00,RA,RA,0.05,0.0,WeatherDisplay:10.37,2013-07-24 01:29:00,
2013-07-23 21:34:00,71.6,66.2,29.96,North,360,0.0,0.0,83,0.00,RA,RA,0.05,0.0,WeatherDisplay:10.37,2013-07-24 01:34:00,
2013-07-23 21:43:00,71.3,66.3,29.97,North,360,0.0,0.0,84,0.00,RA,RA,0.05,0.0,WeatherDisplay:10.37,2013-07-24 01:43:00,
2013-07-23 21:49:00,71.2,66.2,29.97,North,360,0.0,1.0,84,0.00,RA,RA,0.05,0.0,WeatherDisplay:10.37,2013-07-24 01:49:00,
2013-07-23 22:03:00,69.8,66.1,29.97,North,360,3.0,7.0,88,0.00,RA,RA,0.05,0.0,WeatherDisplay:10.37,2013-07-24 02:03:00,
2013-07-23 22:08:00,69.7,65.7,29.98,North,360,1.0,5.0,87,0.00,RA,RA,0.05,0.0,WeatherDisplay:10.37,2013-07-24 02:08:00,
2013-07-23 22:13:00,69.6,65.2,29.98,North,360,5.0,6.0,86,0.00,RA,RA,0.05,0.0,WeatherDisplay:10.37,2013-07-24 02:13:00,
2013-07-23 22:19:00,69.6,65.2,29.98,North,360,0.0,0.0,86,0.00,RA,RA,0.05,0.0,WeatherDisplay:10.37,2013-07-24 02:19:00,
2013-07-23 22:24:00,69.6,65.6,29.98,North,360,0.0,1.0,87,0.00,RA,RA,0.05,0.0,WeatherDisplay:10.37,2013-07-24 02:24:00,
2013-07-23 22:29:00,69.4,65.4,29.98,North,360,0.0,4.0,87,0.00,RA,RA,0.05,0.0,WeatherDisplay:10.37,2013-07-24 02:29:00,
2013-07-23 22:34:00,69.1,65.1,29.98,North,360,2.0,5.0,87,0.00,RA,RA,0.05,0.0,WeatherDisplay:10.37,2013-07-24 02:34:00,
2013-07-23 22:39:00,69.0,65.0,29.98,North,360,0.0,2.0,87,0.00,RA,RA,0.05,0.0,WeatherDisplay:10.37,2013-07-24 02:39:00,
2013-07-23 22:44:00,68.9,64.9,29.98,North,360,0.0,1.0,87,0.00,RA,RA,0.05,0.0,WeatherDisplay:10.37,2013-07-24 02:44:00,
2013-07-23 22:49:00,68.8,65.1,29.98,North,360,0.0,4.0,88,0.00,RA,RA,0.05,0.0,WeatherDisplay:10.37,2013-07-24 02:49:00,
2013-07-23 23:03:00,69.0,65.3,29.98,North,360,1.0,6.0,88,0.00,RA,RA,0.05,0.0,WeatherDisplay:10.37,2013-07-24 03:03:00,
2013-07-23 23:08:00,68.9,65.5,29.98,North,360,0.0,2.0,89,0.00,RA,RA,0.05,0.0,WeatherDisplay:10.37,2013-07-24 03:08:00,
2013-07-23 23:23:00,68.7,65.6,29.98,North,360,0.0,3.0,90,0.00,RA,RA,0.05,0.0,WeatherDisplay:10.37,2013-07-24 03:23:00,
2013-07-23 23:29:00,68.8,65.7,29.98,North,360,0.0,1.0,90,0.00,RA,RA,0.05,0.0,WeatherDisplay:10.37,2013-07-24 03:29:00,
2013-07-23 23:39:00,68.6,65.5,29.98,North,360,0.0,3.0,90,0.00,RA,RA,0.05,0.0,WeatherDisplay:10.37,2013-07-24 03:39:00,
2013-07-23 23:54:00,68.0,65.3,29.98,North,360,0.0,0.0,91,0.00,RA,RA,0.05,0.0,WeatherDisplay:10.37,2013-07-24 03:54:00,
2013-07-23 23:59:00,67.9,65.1,29.98,North,360,0.0,0.0,91,0.00,CLR,CLR,0.00,0.0,WeatherDisplay:10.37,2013-07-24 03:59:00,